Погода в Добромиле

Украина / Львовская область     49°34′14″N   22°47′21″E
темп.,
°C
ветер,
м/с
пор.,
м/с
влажн.,
%
обл.,
%
осадки,
мм/ч
давл.,
гПа
погр.,
м
4 марта, чт
чт423:00+3ююз412868 0.0 1024263
02:00+4юз616824 0.0 1023455
05:00+4юз5138232 0.0 1020342
08:00+3юз5138157 0.0 1019319
11:00+8юз5116474 0.0 1017664
14:00+10зюз5105936 0.0 10141152
17:00+7зюз497668 0.0 1013624
20:00+5зюз398484 0.0 1013371
5 марта, пт
пт523:00+5зюз3891100 1.2 1013361
02:00+4ссз0199100 2.9 101247
05:00+3с1299100 3.1 1012120
08:000с2598100 7.4 1012326
11:000ссв2598100 3.6 1015365
14:00−1ссв4796100 6.1 1016574
17:00−1ссв4796100 2.0 1018593
20:00−4с278599 2.5 1022200
6 марта, сб
сб623:00−6ссз238835 0.0 102559
02:00−7з128218 0.0 102722
05:00−7зюз22880 0.0 102727
08:00−6зюз239211 0.0 1030147
11:00−2сз477363 0.3 10311306
14:00−1сз366681 0.6 10311367
17:00−2сз3569100 0.2 10311301
20:00−5зюз128375 0.2 103224
7 марта, вс
вс723:00−6юз23840 0.0 103289
02:00−6юз38800 0.0 1030172
05:00−4юз614740 0.0 1028524
08:00−3юз614710 0.0 1027496
11:00+1зюз611600 0.0 10251014
14:00+2зюз610600 0.0 10231083
17:00+1зюз611650 0.0 1020931
20:00−1юз513730 0.0 1020408
8 марта, пн
пн823:00−2зюз310790 0.0 1020239
02:00−3юз26830 0.0 1019138
05:00−4юз278465 0.0 1017152
08:00−3юз278178 0.0 1017262
11:00+1з477598 0.0 1017965
14:00+1з587599 0.1 10171199
17:000зсз488398 0.1 1017809
20:00−2сз399894 1.4 1019619